Current Version              Previous Version:    01  02  03  04  05  06  07  08  09  10  11  12  13  14  15  16  17  18  19  20  21  22  23  24  25  26  27  28  29  30  
   31  32  33  34  35  36  37  38  39  40  41  42  43  44  45  46  47  48  49  50  51  52  53  54  55  56  57  58  59  60  

[Printable]
462
ASUS44 KFWD 201515
RWRTX
NORTH TEXAS HOURLY WEATHER ROUNDUP
NATIONAL WEATHER SERVICE FORT WORTH TX
1000 AM CDT SAT SEP 20 2014

NOTE: "FAIR" INDICATES FEW OR NO CLOUDS BELOW 12,000 FEET WITH NO
SIGNIFICANT WEATHER AND/OR OBSTRUCTIONS TO VISIBILITY.

TXZ118-119-201600-
DALLAS/FORT WORTH METROPLEX

CITY           SKY/WX    TMP DP  RH WIND       PRES   REMARKS
DFW AIRPORT    MOSUNNY   81  70  69 SE9       30.01R
DALLAS LOVE    MOSUNNY   76  70  82 SE12      30.02R
FTW MEACHAM    CLOUDY    79  71  76 SE6       30.01R
DAL-EXECUTIVE  MOSUNNY   81  71  71 SE8       30.02R
FTW-ALLIANCE   PTSUNNY   79  71  76 S7        30.01R
FTW-NAS-JRB    CLOUDY    80  70  71 SE8       30.06R
FTW-SPINKS     PTSUNNY   79  72  78 SE6       30.03R
ARLINGTON      MOSUNNY   79  70  74 SE10      30.02R
GRAND PRAIRIE  SUNNY     79  70  73 MISG      30.03R
ADDISON        MOSUNNY   81  70  69 SE10      30.03R
MESQUITE       MOSUNNY   81  72  74 SE7       30.02R
LANCASTER      MOSUNNY   79  70  74 SE6       30.03R
$$

TXZ091>094-102>105-117-120-121-131>134-201600-
NORTH CENTRAL TEXAS

CITY           SKY/WX    TMP DP  RH WIND       PRES   REMARKS
SHRMAN/DENISON SUNNY     80  70  70 SE8       30.05R
GAINESVILLE    MOSUNNY   77  71  80 SE8       30.05R
BOWIE          CLOUDY    78  71  78 SE12      30.02R
BRIDGEPORT     PTSUNNY   76  69  78 S8        30.04R
DECATUR        PTSUNNY   77  71  80 S9        30.03R
DENTON         MOSUNNY   79  70  74 SE13      30.01S
MCKINNEY       SUNNY     80  70  71 SE9       30.02S
GREENVILLE     SUNNY     81  68  65 SE7       30.04R
ROCKWALL       SUNNY     80  72  75 SE7       30.02S
TERRELL        MOSUNNY   82  72  71 S9        30.03R
WAXAHACHIE     MOSUNNY   79  70  72 SE6       30.03R
CLEBURNE       CLOUDY    77  73  88 CALM      30.03R
GRANBURY       CLOUDY    78  72  80 E9        30.02R
$$

TXZ083>090-098>101-113>116-127>130-139>142-154-155-201600-
WESTERN NORTH TEXAS

CITY           SKY/WX    TMP DP  RH WIND       PRES   REMARKS
WICHITA FALLS  MOSUNNY   78  71  79 S12       30.00S
WF-KICKAPOO    PTSUNNY   78  69  74 S9        30.02R
VERNON         CLOUDY    77  69  75 S9        30.02R
ABILENE        CLOUDY    77  70  79 S10       30.03R
ABILENE-DYESS  CLOUDY    76  65  68 S9        30.01S
BRECKENRIDGE   CLOUDY    77  71  80 SE8       30.02R
GRAHAM         CLOUDY    79  69  70 S8        30.00R
MINERAL WELLS  PTSUNNY   77  70  79 SE8       30.01R
STEPHENVILLE   PTSUNNY   77  70  80 S7        30.04S
COMANCHE       CLOUDY    76  72  86 E7        30.03R
BROWNWOOD      CLOUDY    75  72  88 SE6       30.02R
COLEMAN        CLOUDY    77  71  81 S9        30.03R
$$

TXZ143>147-156>162-174-175-201600-
CENTRAL TEXAS

CITY           SKY/WX    TMP DP  RH WIND       PRES   REMARKS
WACO           CLOUDY    77  72  84 SE6       30.01R
WACO-TSTC      PTSUNNY   73  73 100 E5        30.00S
WACO-MCGREGOR  CLOUDY    75  70  83 SE8       30.02R
HILLSBORO      PTSUNNY   78  72  80 E8        30.02R
CORSICANA      MOSUNNY   80  72  76 SE10      30.03R
MEXIA          CLOUDY    78  74  87 SE8       30.00S
HEARNE         CLOUDY    77  73  87 E6        30.00R
CAMERON        CLOUDY    75  74  96 E5        30.00R
TEMPLE         CLOUDY    75  70  83 E6        30.01R
KILLEEN        CLOUDY    77  72  83 E7        30.02R
KILLEEN-SKYLRK CLOUDY    75  68  78 E9        30.00R
FORT HOOD      CLOUDY    79  73  83 E6        30.01R
GATESVILLE     PTSUNNY   75  73  94 SE6       30.04R
HAMILTON       CLOUDY    78  73  85 SE10G18   30.03R
LAMPASAS       LGT RAIN  76  75  97 CALM      30.01R
$$

TXZ095>097-106>112-122>126-135>138-148>153-164>167-201600-
EAST TEXAS

CITY           SKY/WX    TMP DP  RH WIND       PRES   REMARKS
PARIS          SUNNY     77  66  69 E6        30.06R
SULPHUR SPRNGS SUNNY     80  71  73 S5        30.06R
MOUNT PLEASANT SUNNY     79  73  81 SE5       30.07R
GILMER         SUNNY     79  72  78 CALM      30.07R
MINEOLA        SUNNY     77  75  94 SE5       30.05R
TYLER          SUNNY     80  70  71 SE6       30.03R
LONGVIEW       SUNNY     80  69  69 VRB3      30.04R
MARSHALL       SUNNY     82  72  71 CALM      30.06R
ATHENS         SUNNY     79  70  73 SE5       30.02S
PALESTINE      SUNNY     79  72  78 E6        30.03R
JACKSONVILLE   SUNNY     79  71  77 E5        30.06R
HENDERSON      SUNNY     80  69  69 SE7       30.05R
NACOGDOCHES    SUNNY     79  68  69 SE8       30.03R
LUFKIN         SUNNY     82  69  64 E9        30.01S
$$

SUPPLEMENTAL OBSERVATIONS (CENTRAL)

CITY           SKY/WX    TMP DP  RH WIND       PRES   REMARKS
LAKE TEXOMA      N/A     79  68  69 SE6         N/A
CADDO GRASSLND   N/A     79  72  78 SE5         N/A
PAT MAYSE LAKE   N/A     75  70  83 E2          N/A
GREENVILLE       N/A     82  72  69 SE6         N/A
CEDAR HILL       N/A     82  72  69 SE6         N/A
ATHENS           N/A     81  70  69 SE6         N/A
PALESTINE        N/A     81  72  74 E5          N/A
LAKE LIMESTONE   N/A     79  73  83 E7          N/A
MCGREGOR         N/A     75  72  88 E6          N/A
TEMPLE           N/A     75  70  83 E7          N/A
$$

SUPPLEMENTAL OBSERVATIONS (WEST)

CITY           SKY/WX    TMP DP  RH WIND       PRES   REMARKS
MILLERS CREEK    N/A     79  73  83 SE9         N/A
POSSUM KINGDOM   N/A     79  68  69 SE5         N/A
LBJ GRASSLAND    N/A     81  70  69 SE8         N/A
GRANBURY         N/A     77  70  78 SE8         N/A
COMANCHE         N/A     75  73  94 SE6         N/A
HAMBY            N/A     77  70  78 SE7         N/A
IVIE RESERVOIR   N/A     73  68  83 SE7         N/A
COLORADO BEND    N/A     75  68  78 S5          N/A
$$

SUPPLEMENTAL OBSERVATIONS (EAST)

CITY           SKY/WX    TMP DP  RH WIND       PRES   REMARKS
CLARKSVILLE      N/A     81  72  74 SE6         N/A
TEXARKANA        N/A     82  72  69 SE1         N/A
LINDEN           N/A     82  72  69 W1          N/A
CADDO LAKE       N/A     84  70  61 SW1         N/A
GILMER           N/A     82  72  69 S1          N/A
HENDERSON        N/A     82  68  61 SE6         N/A
LUFKIN           N/A     82  70  65 MISG        N/A
N SABINE NF      N/A     81  77  89 MISG        N/A
$$

SUPPLEMENTAL OBSERVATIONS ARE A COLLECTION OF AUTOMATED INSTRUMENTS
THAT ARE MAINTAINED BY A VARIETY OF FEDERAL AND STATE AGENCIES.
CERTAIN ELEMENTS...SUCH AS HUMIDITY VALUES AND SUSTAINED WIND
SPEEDS...MAY BE APPROXIMATED.